Simultaneous Nadir Overpasses (SNOs) Predictions

Prediction of SNOs between NPP and TERRA Satellite Orbit:

Table of predicted SNOs for the next 14.0 days since TLE Epoch: 12/28/2012
Index Date (NPP) Time (NPP) Lat,Lon (NPP) SZA (NPP ) Date (TERRA) Time (TERRA) Lat,Lon (TERRA) SZA (TERRA ) Distance(km) Time Diff (sec)
1 12/30/2012 20:01:41 68.23,-122.14 91.23 12/30/2012 20:02:42 68.22,-122.13 91.22 0.59 61
2 12/30/2012 20:52:22 -68.11, 45.33 88.91 12/30/2012 20:52:12 -68.12, 45.38 88.90 2.30 10
3 12/30/2012 21:42:58 67.53,-146.65 90.51 12/30/2012 21:41:47 67.56,-147.62 90.55 41.36 71
4 01/02/2013 12:18:34 68.18, -6.30 90.96 01/02/2013 12:19:14 68.17, -6.32 90.94 1.61 40
5 01/02/2013 13:09:15 -68.06, 161.17 89.17 01/02/2013 13:08:44 -68.07, 161.19 89.16 1.31 31
6 01/05/2013 03:44:58 -69.09, -59.03 88.38 01/05/2013 03:46:06 -68.95, -57.14 88.56 77.03 68
7 01/05/2013 04:35:27 68.15, 109.52 90.66 01/05/2013 04:35:45 68.17, 109.55 90.67 2.01 18
8 01/05/2013 05:26:08 -68.03, -83.00 89.48 01/05/2013 05:25:16 -68.01, -83.00 89.49 1.56 52
9 01/07/2013 20:01:37 -68.31, 57.78 89.50 01/07/2013 20:02:49 -68.27, 57.90 89.56 6.76 72
10 01/07/2013 20:52:19 68.07,-134.60 90.25 01/07/2013 20:52:17 68.10,-134.66 90.27 3.47 2
11 01/07/2013 21:43:00 -67.95, 32.88 89.89 01/07/2013 21:41:48 -67.94, 32.79 89.89 3.46 72
12 01/10/2013 12:18:27 -68.19, 173.72 90.01 01/10/2013 12:19:20 -68.20, 173.68 90.01 1.56 53
13 01/10/2013 13:09:11 68.06, -18.81
